Kezdőlap
METAR-TAF:

METAR-TAF

Repülőterek :

Chaitén, Chile

földrajzi szélesség: 42-55-58S, földrajzi hosszúság: 072-41-58W, magasság: 4 m

Jelenlegi meteorológiai megfigyelések

A jelentés 54 perccel ezelõtt készült, 16:00 UTC
Délnyugati szél 5 kt
Hőmérséklet 8°C
Páratartalom 71%
Légköri nyomás 1020 hPa
Látótávolság 10 km, vagy több
felhőtlen 1500 m magasságban, és nincs gomolyfelhõ

METAR: SCTN 201600Z 22005KT CAVOK 08/03 Q1020

Idő: 13:54 (16:54 UTC)


TAF: hiányzik

Meteorológiai megfigyelések és előrejelzések több, mint 4000 repülőtéren (METAR és TAF jelentéseket).

A térképen piros és sárga pontok jelzik az elérhető meteorológiai állomásokat.

Mozgassa az egeret a pont fölött, hogy megjelenjen az állomás neve.

Azután kattintson az időjárási megfigyelések és előrejelzések megtekintéséhez.

A térkép megváltoztatása: kattintson a fekete keresztel jelölt zöld gombra ráközelítéshez, a vonallal jelölt zöld gombra távolításhoz, vagy a zöld nyilakra a szomszédos térképek eléréséhez.


METAR-TAF: